Location: Biancano
(41.1500°N, 14.3667°E)
Time: 15:56:36
(UTC+00:00)

Daily predictions for brighter satellites

Satellite Brightness Start Highest point End
(mag) Time Altitude Azimuth Time Altitude Azimuth Time Altitude Azimuth
Cosmos 1812 3.5 15:56:47 10° SSE 16:00:14 33° E 16:03:42 10° NNE
Cosmos 2369 3.7 15:56:14 10° NNW 16:01:59 74° ENE 16:07:41 10° SSE
Okean O Rocket 3.4 16:00:57 10° E 16:02:41 12° ENE 16:04:25 10° NE
X-37B 1.7 16:00:59 10° SSW 16:03:33 29° SSE 16:06:08 10° E
CZ-2C R/B 2.9 15:59:23 10° SSE 16:04:14 86° ENE 16:09:01 10° NNW
Cosmos 2082 Rocket 2.3 16:01:13 10° SSW 16:06:55 90° E 16:12:36 10° NNE
SL-16 R/B 3.4 16:03:01 10° N 16:07:07 20° NE 16:11:11 10° E
Cosmos 540 Rocket 4.0 16:02:53 10° SSW 16:07:54 60° WNW 16:12:58 10° NNE
ARGOS 4.4 16:05:03 10° ESE 16:08:41 19° ENE 16:12:19 10° NNE
Sich 1 3.0 16:06:47 10° N 16:11:05 70° E 16:15:24 10° SSE
FengYun 1-2 T 4.2 16:06:24 10° SSE 16:11:56 73° ENE 16:17:28 10° N
COSMOS 2455 3.3 16:07:45 10° SW 16:13:42 63° WNW 16:19:42 10° NNE
SMAP 3.1 16:10:11 10° SSE 16:14:44 59° ENE 16:19:19 10° N
NOAA 6 4.0 16:11:09 10° SSE 16:16:11 62° ENE 16:21:15 10° N
Cosmos 1933 4.4 16:16:07 10° SSW 16:20:00 47° W 16:23:55 10° N
Cosmos 1833 Rocket 4.2 16:15:29 10° WSW 16:20:32 34° WNW 16:25:37 10° N
Cosmos 1805 Rocket 4.0 16:19:17 10° NNW 16:23:35 65° W 16:27:52 10° S
Cosmos 2278 3.7 16:18:47 10° NNW 16:24:27 63° ENE 16:30:04 10° SE
CZ-4B DEB 4.3 16:19:57 10° SSE 16:25:20 57° ENE 16:30:42 10° N
USA 305 4.4 16:27:31 10° NNW 16:30:45 21° NNE 16:32:51 15° ENE
CZ-4B R/B 3.9 16:27:01 10° S 16:30:53 49° W 16:34:35 10° NNW
CZ-2C R/B 3.2 16:27:25 10° NNE 16:32:06 34° E 16:36:46 10° SSE
SL-24 R/B - RUBIN 2 4.1 16:29:18 10° NW 16:33:41 62° WSW 16:37:56 10° SSE
Cosmos 1500 3.7 16:33:01 10° NNW 16:36:43 62° W 16:40:22 10° S
Meteor 1-14 Rocket 4.3 16:31:19 10° N 16:37:13 74° E 16:43:10 10° SSE
Cosmos 44 Rocket 3.4 16:33:45 10° NNW 16:38:31 50° NE 16:43:08 10° SE
Cosmos 1515 Rocket 4.3 16:35:28 10° SSE 16:39:25 32° E 16:43:15 10° NNE
Cosmos 1814 Rocket 4.3 16:35:33 10° SSW 16:40:44 67° WNW 16:45:55 10° NNE
Meteor 2-16 Rocket 4.4 16:35:19 10° N 16:41:27 73° E 16:47:34 10° SSE
Cosmos 921 Rocket 3.0 16:37:47 10° S 16:41:53 57° ESE 16:45:57 11° NNE
Cosmos 1570 Rocket 4.3 16:42:23 10° SSW 16:47:36 68° WNW 16:52:49 10° NNE
CZ-4B R/B 3.3 16:46:14 10° SE 16:51:26 51° ENE 16:56:35 10° N
MOS 1-B Rocket 4.2 16:47:15 10° NNE 16:53:26 77° ESE 17:00:38 10° S
CZ-2D R/B 3.1 16:50:02 10° SSE 16:53:51 84° ENE 16:57:41 10° N
USA 267 3.7 16:50:26 13° NE 16:56:12 58° NW 17:02:33 10° WSW
MOS 1-B 4.3 16:50:29 10° SSE 16:56:14 76° ENE 17:02:02 10° NNW
Cosmos 1939 Rocket 4.4 16:52:43 10° SSW 16:56:34 39° W 17:00:24 10° NNW
Cosmos 2298 Rocket 4.1 16:52:04 10° N 16:57:19 55° ENE 17:02:32 10° SE
ATLAS CENTAUR R/B 4.2 16:50:22 10° W 16:57:56 28° NW 17:01:31 11° NNE
Cosmos 1151 Rocket 3.8 16:55:37 10° SSW 16:59:50 53° W 17:04:08 10° N
Meteor 1-27 Rocket 4.1 16:54:49 10° SSE 16:59:53 39° E 17:04:01 15° NNE
CZ-4C R/B 4.4 17:03:22 22° SE 17:03:22 22° SE 17:05:14 10° SSE
APEX 2.9 16:58:51 10° SSW 17:02:46 88° WNW 17:04:24 28° NNE
Meteor 2-6 Rocket 4.3 16:57:02 10° S 17:02:47 84° W 17:08:23 10° N
COSMO-SKYMED 1 2.5 16:59:10 11° NNE 17:03:18 65° E 17:07:36 10° S
USA 306 3.9 16:59:39 10° NW 17:03:19 27° NNE 17:03:51 26° NE
Cosmos 1633 Rocket 3.3 16:59:22 10° NNW 17:03:44 70° W 17:08:06 10° S
SJ-11-01 4.4 16:59:43 10° SSE 17:04:19 53° ENE 17:08:56 10° N
Cosmos 1666 3.5 17:01:48 10° NNW 17:05:25 51° W 17:09:00 10° S
PAYLOAD B 4.3 17:00:43 10° SSE 17:06:20 83° WSW 17:11:57 10° NNW
Landsat 5 3.6 17:05:03 30° NE 17:06:33 45° E 17:10:17 10° S
Cosmos 2360 Rocket 3.1 17:03:31 10° N 17:08:15 26° NE 17:08:17 26° NE
Genesis I 4.3 17:05:19 10° S 17:08:21 26° ESE 17:08:21 26° ESE
ISS -1.7 17:05:52 10° WNW 17:08:49 28° SW 17:11:45 10° SSE
Helios 1B 4.4 17:06:10 14° NNE 17:09:55 74° ESE 17:14:14 10° S
Cosmos 1818 3.6 17:08:38 10° NNW 17:14:08 84° WSW 17:19:34 10° SSE
CZ-2C R/B 2.4 17:13:48 10° WSW 17:17:45 35° S 17:19:13 27° SE
Meteor 2-15 4.5 17:11:58 10° S 17:18:04 84° W 17:24:12 10° N
ATLAS 5 CENTAUR R/B 2.7 17:15:41 10° NNW 17:19:39 30° NNE 17:19:39 30° NNE
SL-08 RB Rocket 3.7 17:18:30 10° SSE 17:23:00 55° ENE 17:27:30 10° N
Cosmos 2266 Rocket 3.9 17:16:37 10° N 17:23:03 80° E 17:29:28 10° S
USA 307 3.8 17:20:08 10° NW 17:23:33 32° NNE 17:23:33 32° NNE
CZ-4C R/B 3.7 17:18:01 10° NW 17:25:26 59° WSW 17:33:50 10° SSE
Lacrosse 5 rocket 1.3 17:23:17 10° NW 17:27:17 77° SW 17:28:57 35° SSE
USA 234 3.2 17:22:36 16° SE 17:28:05 82° NE 17:34:39 10° NW
ATLAS 2AS CENTAUR R/B 4.5 17:26:50 10° NNW 17:30:48 15° NNE 17:31:18 15° NNE
Cosmos 1933 Rocket 3.3 17:26:32 10° N 17:30:53 81° E 17:35:12 10° S
Tiangong 2.5 17:27:59 10° SW 17:30:10 30° S 17:30:10 30° S
Cosmos 2322 Rocket 2.1 17:25:32 10° NNW 17:31:12 62° ENE 17:35:03 21° SE
Cosmos 2150 Rocket 4.1 17:27:40 10° NNW 17:32:52 77° WSW 17:38:07 10° SSE
Cosmos 1867 3.5 17:30:54 10° SSW 17:36:21 85° WNW 17:38:27 39° NNE
NOSS 3-3 (A) 3.7 17:31:00 10° SSW 17:36:31 70° ESE 17:38:22 45° NE
NOSS 3-3 (C) 3.7 17:31:06 10° SSW 17:36:37 69° ESE 17:38:27 45° NE
H-2A R/B 3.2 17:31:46 10° S 17:36:39 44° W 17:41:27 10° NNW
Cosmos 1470 Rocket 4.4 17:32:32 10° NNW 17:36:53 52° W 17:41:13 10° S
Cosmos 1544 3.6 17:33:23 10° NNW 17:36:57 57° W 17:40:30 10° S
Okean O Rocket 1.8 17:33:59 10° S 17:38:25 71° WSW 17:42:53 10° NNW
DEBRIS 2.7 17:36:08 10° SW 17:38:35 76° SSE 17:38:35 76° SSE
X-37B 2.2 17:36:06 10° W 17:37:49 30° W 17:37:49 30° W
Cosmos 1125 Rocket 3.7 17:33:51 10° NNW 17:39:06 74° WSW 17:44:21 10° S
USA 32 4.0 17:36:35 10° S 17:41:48 86° W 17:46:22 14° N
Meteor 1-11 Rocket 3.8 17:38:33 10° NNW 17:44:14 77° W 17:50:00 10° S
USA 308 4.1 17:42:42 10° NW 17:45:21 32° NNW 17:45:21 32° NNW
ARGOS 3.6 17:43:05 10° S 17:48:26 61° WSW 17:53:48 10° NNW
SL-16 R/B 2.5 17:46:06 10° NNW 17:51:45 68° WSW 17:57:21 10° SSE
Feng Yun 1-1 Rocket 4.5 17:57:19 10° S 18:03:14 75° WSW 18:09:06 10° NNW
Cosmos 2333 Rocket 4.0 18:06:19 10° NNW 18:08:05 19° N 18:08:05 19° N
CZ-2C R/B 4.3 18:07:52 10° N 18:12:16 29° WNW 18:16:39 10° SW
Cosmos 2219 Rocket 4.4 18:14:19 10° N 18:15:05 14° N 18:15:05 14° N
Cosmos 2360 Rocket 3.7 18:47:03 10° NW 18:50:08 30° NW 18:50:08 30° NW
